Weather History for Champaign, IL

Change the Weather History Date:

Saturday, July 14, 2012

  Actual Average Record
Temperature  
Mean Temperature 75 °F 74 °F  
Max Temperature 83 °F 84 °F 92 °F (2010)
Min Temperature 66 °F 64 °F 50 °F (2001)
Degree Days  
Heating Degree Days 0 0  
Month to date heating degree days 0 0  
Since 1 June heating degree days 14 17  
Since 1 July heating degree days 0 0  
Cooling Degree Days 10 9  
Month to date cooling degree days 228 135  
Year to date cooling degree days 682 450  
Since 1 June cooling degree days 456 358  
Growing Degree Days 24 (Base 50)    
Moisture  
Dew Point 68 °F    
Average Humidity 82    
Maximum Humidity 97    
Minimum Humidity 67    
Precipitation  
Precipitation 0.00 in 0.16 in 1.09 in (1997)
Month to date precipitation 0.00 1.91  
Year to date precipitation 12.26 21.24  
Sea Level Pressure  
Sea Level Pressure 30.06 in    
Wind  
Wind Speed 4 mph (SE)    
Max Wind Speed 21 mph    
Max Gust Speed 26 mph    
Visibility 8 miles    
Events Rain , Thunderstorm    
T = Trace of Precipitation, MM = Missing Value Source: NWS Daily Summary

Daily Weather History Graph

Daily Weather History Graph

Search for Another Location

Airport:

Trip Planner

Search our weather history database for the weather conditions in past years. The results will help you decide how hot, cold, wet, or windy it might be!

Date:

Astronomy

Jul. 14, 2012 Rise Set
Actual Time 5:36 AM CDT 8:21 PM CDT
Civil Twilight 5:04 AM CDT 8:53 PM CDT
Nautical Twilight 4:24 AM CDT 9:33 PM CDT
Astronomical Twilight 3:38 AM CDT 10:18 PM CDT
Moon 1:50 AM CDT (7/14) 4:45 PM CDT (7/14)
Length of Visible Light 15h 48m
Length of Day
14h 44m
Waning Crescent, 18% of the Moon is Illuminated
Jul 14
Waning Crescent
Jul 18
New
Jul 26
First Quarter
Aug 1
Full
Aug 9
Last Quarter

Hourly Weather History & Observations

Time (CDT) Temp. Heat Index Dew Point Humidity Pressure Visibility Wind Dir Wind Speed Gust Speed Precip Events Conditions
12:53 AM 73.0 °F - 66.9 °F 81% 30.03 in 10.0 mi SSE 4.6 mph - N/A   Scattered Clouds
1:53 AM 71.1 °F - 66.0 °F 84% 30.03 in 10.0 mi SSE 3.5 mph - N/A   Clear
2:53 AM 71.1 °F - 66.0 °F 84% 30.03 in 10.0 mi Calm Calm - N/A   Clear
3:53 AM 66.9 °F - 64.9 °F 93% 30.03 in 10.0 mi Calm Calm - N/A   Clear
4:53 AM 66.2 °F - 64.4 °F 94% 30.05 in 10.0 mi ESE 3.5 mph - N/A   Clear
5:53 AM 66.0 °F - 64.9 °F 96% 30.05 in 7.0 mi ESE 3.5 mph - N/A   Clear
6:53 AM 71.1 °F - 68.0 °F 90% 30.06 in 8.0 mi Calm Calm - N/A   Clear
7:53 AM 75.9 °F - 71.1 °F 85% 30.08 in 10.0 mi SSW 5.8 mph - N/A   Clear
8:53 AM 80.1 °F 83.8 °F 72.0 °F 76% 30.10 in 10.0 mi WSW 4.6 mph - N/A   Mostly Cloudy
9:53 AM 82.0 °F 86.7 °F 72.0 °F 71% 30.09 in 10.0 mi Calm Calm - N/A   Scattered Clouds
10:53 AM 82.0 °F 86.7 °F 72.0 °F 71% 30.08 in 10.0 mi Variable 3.5 mph - N/A   Mostly Cloudy
11:23 AM 80.6 °F 84.6 °F 71.6 °F 74% 30.10 in 9.0 mi South 6.9 mph - 0.00 in Rain , Thunderstorm Light Thunderstorms and Rain
11:28 AM 77.0 °F - 69.8 °F 78% 30.10 in 2.0 mi SSE 19.6 mph 26.5 mph 0.00 in Rain , Thunderstorm Thunderstorms and Rain
11:30 AM 73.4 °F - 69.8 °F 88% 30.09 in 1.2 mi SSE 17.3 mph 26.5 mph 0.00 in Rain , Thunderstorm Heavy Thunderstorms and Rain
11:33 AM 73.4 °F - 68.0 °F 83% 30.10 in 0.8 mi South 8.1 mph 26.5 mph N/A Rain , Thunderstorm Heavy Thunderstorms and Rain
11:39 AM 73.4 °F - 66.2 °F 78% 30.10 in 1.0 mi Calm Calm - N/A Rain , Thunderstorm Heavy Thunderstorms and Rain
11:44 AM 75.2 °F - 69.8 °F 83% 30.09 in 3.0 mi ENE 4.6 mph - N/A Rain , Thunderstorm Light Thunderstorms and Rain
11:53 AM 78.1 °F - 71.1 °F 79% 30.07 in 10.0 mi ENE 4.6 mph - N/A Thunderstorm Scattered Clouds
12:53 PM 79.0 °F - 69.1 °F 72% 30.06 in 10.0 mi NNE 11.5 mph - N/A   Mostly Cloudy
1:14 PM 78.8 °F - 68.0 °F 69% 30.07 in 10.0 mi ENE 9.2 mph - N/A   Overcast
1:21 PM 77.0 °F - 69.8 °F 78% 30.07 in 10.0 mi ENE 13.8 mph 18.4 mph N/A Thunderstorm Overcast
1:53 PM 78.1 °F - 69.1 °F 74% 30.06 in 10.0 mi NE 13.8 mph - N/A   Mostly Cloudy
2:40 PM 82.4 °F 86.3 °F 69.8 °F 66% 30.05 in 10.0 mi ESE 3.5 mph - N/A Thunderstorm Partly Cloudy
2:53 PM 82.0 °F 86.3 °F 71.1 °F 69% 30.03 in 10.0 mi Calm Calm - N/A Thunderstorm Partly Cloudy
3:53 PM 73.9 °F - 66.0 °F 76% 30.05 in 7.0 mi SE 11.5 mph - N/A Rain Rain
3:57 PM 73.4 °F - 66.2 °F 78% 30.05 in 6.0 mi ESE 10.4 mph - N/A Rain , Thunderstorm Light Rain
4:16 PM 75.2 °F - 68.0 °F 78% 30.06 in 10.0 mi SSE 8.1 mph - N/A   Partly Cloudy
4:53 PM 79.0 °F - 66.9 °F 66% 30.02 in 10.0 mi SSE 10.4 mph - N/A   Clear
5:53 PM 79.0 °F - 66.9 °F 66% 30.02 in 10.0 mi South 6.9 mph - N/A   Clear
6:21 PM 78.8 °F - 66.2 °F 65% 30.02 in 10.0 mi South 3.5 mph - N/A   Partly Cloudy
6:53 PM 77.0 °F - 68.0 °F 74% 30.02 in 10.0 mi Calm Calm - N/A   Clear
7:53 PM 73.0 °F - 68.0 °F 84% 30.04 in 10.0 mi Calm Calm - N/A   Clear
8:53 PM 71.1 °F - 66.9 °F 87% 30.04 in 10.0 mi Calm Calm - N/A   Clear
9:53 PM 70.0 °F - 66.9 °F 90% 30.06 in 10.0 mi South 3.5 mph - N/A   Clear
10:53 PM 70.0 °F - 68.0 °F 93% 30.05 in 9.0 mi South 5.8 mph - N/A   Clear
11:53 PM 71.1 °F - 68.0 °F 90% 30.06 in 7.0 mi South 4.6 mph - N/A   Clear